Simultaneous Nadir Overpasses (SNOs) Predictions

Prediction of SNOs between GOES-15 and NPP Satellite Orbit:

Table of predicted SNOs for the next 14.0 days since TLE Epoch: 4/10/2015
Index Date Time (GOES-15) GOES-15 Lat,Lon NPP Lat,Lon Distance(km) Time Diff (sec)
1 04/11/2015 10:32:28 0.04,-134.98 0.09,-135.14 18.56 80
2 04/13/2015 22:32:55 -0.05,-135.01 -0.25,-135.91 101.86 80
3 04/14/2015 22:16:49 -0.05,-135.04 0.76,-131.37 418.07 80
4 04/16/2015 10:38:35 0.05,-135.13 0.37,-136.65 173.02 80
5 04/17/2015 10:17:09 0.05,-135.15 -0.63,-132.11 346.38 80
6 04/18/2015 22:39:02 -0.05,-135.14 -0.57,-137.41 258.30 80
7 04/19/2015 22:22:57 -0.05,-135.17 0.49,-132.88 261.00 80
8 04/21/2015 10:44:42 0.05,-135.24 0.69,-138.15 330.81 80
9 04/22/2015 10:23:16
